Wind_Speed
20 22 23 23 22 21 21 22 23 25 25 26 26 27 28 28 29 30 30 31 31 30 29 29 30 30 30 30 30 31 31 31 32 33 34 34 35 35 36 37 39 40 42 43 44 45 44 44 43 42 41 40 39 39 39 39 39 37 35 35 34 33 33
22 24 25 26 25 23 23 23 25 26 27 27 28 28 29 30 30 31 32 32 32 31 29 30 31 31 31 31 31 31 32 32 33 34 35 36 36 36 37 38 40 42 42 43 43 42 41 41 41 40 39 39 39 39 38 39 39 38 36 35 35 33 33
24 26 27 27 27 26 25 25 26 27 28 29 29 30 30 31 32 32 33 33 33 31 30 31 32 32 31 31 32 32 33 33 34 35 36 37 37 37 37 39 41 43 43 42 42 40 39 39 38 38 38 39 39 40 39 39 39 38 37 36 36 35 35
26 27 27 28 28 28 27 27 28 29 30 30 30 31 31 32 32 33 34 34 33 31 30 32 33 32 32 32 32 33 33 34 35 37 37 37 37 37 38 40 42 43 43 42 40 38 38 37 36 37 39 40 40 40 40 40 39 39 38 38 37 36 37
28 27 27 28 29 29 28 29 29 30 31 30 30 31 32 32 33 33 35 35 33 31 31 33 33 33 32 32 33 34 34 35 37 37 38 38 38 38 39 41 43 43 42 40 38 37 36 35 35 38 40 41 41 41 40 40 39 39 39 38 38 38 38
28 28 28 28 29 29 29 30 30 31 31 31 31 32 32 32 33 34 35 35 33 31 31 34 34 33 33 33 33 34 35 36 37 38 39 38 39 39 40 42 43 43 42 39 37 36 35 34 35 38 39 40 41 41 39 38 37 37 37 37 38 39 39
28 28 28 29 29 30 30 30 30 31 31 31 31 32 32 32 33 34 35 35 33 32 33 34 34 34 34 33 34 35 36 37 38 39 39 39 40 40 41 43 44 43 42 39 37 35 34 34 36 38 39 40 41 41 39 37 36 36 36 36 37 39 40
28 28 28 29 30 30 30 30 30 31 32 32 32 33 33 32 33 35 35 35 34 33 34 35 35 34 34 34 35 36 37 38 39 39 40 40 41 41 42 44 44 43 41 39 37 36 36 37 38 39 39 39 40 41 40 39 37 36 36 36 37 38 40
27 27 28 30 30 30 30 30 31 32 32 32 33 33 33 33 34 35 35 35 35 34 35 36 36 35 35 35 35 36 38 39 40 40 41 41 41 42 43 44 45 43 41 39 37 36 37 38 40 40 38 38 40 41 40 39 37 36 36 35 35 36 37
27 28 29 30 30 30 30 30 32 33 33 33 33 34 33 34 35 35 35 36 36 35 36 37 37 36 36 36 36 37 38 39 40 41 42 42 42 43 44 45 45 43 40 38 37 37 37 39 40 40 38 38 40 41 39 38 37 37 36 36 35 35 35
27 28 29 30 29 29 29 30 32 34 34 34 34 34 34 35 36 36 36 37 37 36 37 38 38 37 37 37 37 38 39 40 41 42 42 43 43 44 45 45 45 43 39 38 37 37 38 39 40 40 38 38 40 41 40 38 37 37 36 35 34 34 34
26 27 29 30 29 29 30 31 33 34 34 34 35 36 35 35 36 37 37 37 37 37 38 38 39 38 38 38 39 40 41 42 42 43 43 44 44 45 46 46 45 43 39 37 37 38 39 40 40 39 38 38 40 41 40 38 37 36 34 32 32 32 32
27 28 29 30 30 30 31 32 34 35 35 36 37 36 36 36 37 38 38 38 38 38 39 39 40 40 40 40 40 41 43 43 44 44 44 44 45 47 47 46 46 43 39 38 38 38 39 40 40 39 39 40 40 41 40 38 37 36 34 32 31 30 30
28 29 31 31 32 32 32 33 34 35 36 36 37 36 36 37 38 38 39 39 39 39 39 40 41 41 41 41 42 43 44 45 45 45 45 45 46 47 47 47 45 43 40 38 38 39 39 40 41 41 41 41 40 40 39 37 37 36 34 31 30 30 31
30 31 32 33 34 33 33 34 35 36 36 37 36 36 37 38 38 39 40 41 41 40 40 41 42 43 43 42 43 44 45 46 47 46 46 46 46 47 47 46 45 43 40 38 39 39 41 42 42 42 42 41 40 40 38 37 36 36 35 32 31 32 32
30 32 33 34 35 35 35 36 36 37 37 37 36 36 37 39 39 40 41 42 42 42 42 43 44 45 44 43 43 45 46 47 47 47 46 46 46 47 46 45 44 42 40 38 39 40 41 43 43 44 43 40 38 38 37 36 35 35 35 34 33 33 32
31 33 34 35 36 36 36 37 37 37 37 36 36 37 38 39 39 41 42 43 43 43 43 44 45 46 45 44 44 45 47 47 47 46 46 45 46 46 46 44 43 41 39 39 39 40 41 43 44 44 42 39 36 36 36 35 35 35 35 35 35 34 33
33 34 35 36 36 37 38 38 38 38 37 36 37 38 39 39 39 41 43 43 43 44 44 45 46 46 45 45 45 46 47 47 46 46 45 45 45 45 45 43 42 40 39 39 40 41 42 43 44 43 40 37 33 33 34 34 35 35 35 35 34 33 32
35 35 35 36 37 38 39 39 38 38 37 37 38 39 39 39 40 42 44 44 44 44 45 45 46 46 45 45 46 47 47 47 46 46 45 45 45 44 44 42 42 41 41 41 42 42 43 43 43 41 37 34 31 30 32 33 34 35 35 34 33 31 30
35 35 35 36 37 38 39 38 38 37 37 38 39 40 39 39 41 44 45 45 45 45 45 46 46 46 45 45 46 47 48 48 47 46 45 45 44 44 43 42 42 42 42 43 43 43 42 42 41 38 34 31 29 29 30 31 32 33 34 33 31 29 27
35 35 35 36 37 38 38 38 38 37 37 38 39 39 39 40 43 44 46 46 45 45 45 46 46 46 45 46 48 48 49 48 47 46 46 45 44 43 42 42 42 43 43 44 44 43 41 40 38 35 32 30 29 29 29 29 30 32 33 32 29 27 26
35 35 35 35 36 37 38 38 37 36 36 37 38 39 40 42 44 45 46 47 46 45 46 46 46 46 47 48 49 49 49 48 47 46 45 45 44 42 42 42 42 43 44 44 44 42 39 38 36 33 31 28 28 29 29 29 29 31 32 31 29 27 25
34 34 35 35 36 37 38 37 36 34 35 37 38 40 42 43 44 46 47 47 47 46 46 46 46 47 48 49 50 49 49 48 47 46 45 44 43 42 41 42 42 43 44 43 42 39 37 35 34 32 29 27 27 27 28 29 29 30 32 31 29 27 25
34 34 35 36 36 36 36 36 35 35 37 38 40 42 43 44 45 46 47 48 48 47 47 47 47 49 49 50 50 49 49 48 47 45 44 43 43 42 41 42 43 43 42 40 38 36 34 32 32 30 28 26 25 26 27 28 28 29 31 31 29 27 26
33 33 34 35 35 35 35 35 36 37 38 39 41 43 44 45 46 46 47 48 48 47 47 47 48 49 50 50 50 49 48 47 46 45 44 43 42 42 42 42 43 42 39 38 36 34 31 30 29 28 27 25 24 24 25 26 27 28 29 30 29 28 26
33 33 34 34 34 34 35 36 37 38 39 40 42 44 45 45 46 46 46 47 47 47 47 47 49 50 50 49 49 49 48 46 45 45 44 43 42 42 42 41 40 39 37 37 35 32 29 27 26 26 25 24 24 24 24 25 26 27 28 29 29 28 26
34 34 34 34 33 34 36 37 38 39 40 42 43 45 46 46 46 46 46 46 47 48 48 48 50 50 50 49 49 48 47 46 45 44 44 43 42 41 39 37 36 35 35 35 32 29 26 25 24 25 24 24 23 23 24 25 25 26 27 28 28 28 27
35 35 34 34 35 36 37 38 39 40 42 43 44 45 46 46 47 47 47 46 47 49 49 49 50 50 50 49 48 47 46 46 45 45 44 43 41 39 38 35 33 33 33 32 29 26 24 23 23 24 23 23 23 24 24 24 24 25 27 28 28 28 28
36 36 35 35 36 37 38 39 40 41 43 44 44 45 46 47 47 47 47 47 48 49 49 49 49 49 49 48 47 46 46 46 46 46 44 43 41 39 37 34 32 31 31 29 28 26 23 22 23 23 23 23 23 24 24 24 24 24 25 27 28 27 28
35 35 35 35 35 36 37 39 41 43 43 44 45 45 46 47 48 47 47 47 48 49 49 48 48 48 48 47 46 46 46 47 47 46 44 42 40 38 35 32 29 28 27 28 28 27 24 23 23 23 23 23 23 23 24 24 23 23 24 25 26 27 27
33 33 34 34 35 37 38 40 42 43 44 44 45 45 46 47 47 46 46 46 48 48 48 48 47 47 46 46 46 46 47 47 47 46 44 41 38 36 34 31 28 26 25 26 27 25 24 24 24 23 22 23 23 23 23 23 23 22 22 23 24 25 25
33 33 34 35 37 38 39 41 43 43 44 45 45 46 46 46 45 45 45 46 47 47 47 47 46 45 45 46 46 46 46 47 47 45 43 40 37 35 33 31 28 26 25 26 25 22 22 24 24 23 22 22 23 23 23 23 22 21 21 21 22 23 24
35 35 36 37 38 39 41 42 43 44 44 45 45 45 45 45 44 45 45 45 46 47 46 45 44 44 45 46 46 46 46 46 46 45 42 39 36 34 32 31 28 25 24 25 24 22 21 23 24 23 22 22 23 23 22 22 22 21 20 20 20 21 22
37 38 39 40 41 42 43 43 44 44 45 45 45 45 45 45 45 46 45 45 46 46 45 44 43 44 45 45 45 45 45 45 45 44 41 38 35 33 32 30 27 24 24 26 25 23 22 23 23 23 22 22 22 23 22 22 21 21 20 20 20 20 21
39 40 41 42 43 43 44 44 43 44 45 46 46 46 46 46 46 46 46 45 45 44 43 42 42 43 44 44 44 44 44 44 44 42 40 38 36 34 33 29 26 24 25 25 24 22 22 22 22 22 23 23 22 22 22 22 22 22 21 21 21 20 20
41 42 43 43 44 44 44 44 44 45 46 47 47 47 47 47 47 46 45 44 44 42 42 41 42 43 43 43 43 44 44 44 43 41 39 37 36 35 32 29 26 25 24 22 21 21 20 19 20 21 22 23 22 21 22 22 22 22 22 22 22 21 20
42 43 44 45 45 44 44 44 45 47 48 48 48 48 47 47 46 45 44 43 42 41 41 41 41 41 41 41 42 43 43 42 42 40 39 38 36 34 31 28 25 23 21 19 19 19 19 18 18 19 20 21 22 22 22 23 23 23 23 23 23 22 21
43 44 45 46 46 45 45 46 47 48 49 49 48 47 46 45 44 43 43 41 41 40 40 40 39 39 39 40 41 41 41 42 41 39 38 37 35 31 28 25 21 18 18 17 17 18 19 19 18 19 19 20 21 22 23 24 24 24 24 23 23 23 21
Wind_Direction
280 281 281 282 284 288 292 297 302 306 309 314 316 319 319 318 317 316 315 314 314 313 312 316 318 317 316 317 318 318 318 318 318 318 318 318 317 316 314 313 312 312 312 311 308 306 305 304 304 304 304 304 302 299 296 294 292 289 285 281 279 277 275
278 279 280 281 283 287 290 294 298 302 307 311 314 316 318 317 317 316 315 314 313 312 312 315 317 316 316 317 318 317 317 317 317 317 318 317 316 314 312 312 312 313 313 312 310 307 305 304 304 304 304 304 303 301 297 294 291 288 285 281 278 275 273
276 277 279 280 284 288 290 293 296 300 304 308 311 314 316 316 316 316 315 313 312 312 312 314 316 315 316 317 317 317 317 317 317 318 317 316 314 313 312 313 314 316 316 314 311 308 306 306 306 306 307 307 305 302 299 295 292 289 285 282 278 274 273
274 277 279 280 283 287 290 293 295 299 303 305 308 311 314 315 316 315 314 312 312 311 311 314 315 314 315 316 316 317 318 318 318 318 317 315 314 314 314 315 316 318 318 316 312 309 307 307 308 310 311 310 308 305 301 297 293 290 287 283 279 274 271
273 276 278 279 281 285 288 290 293 297 300 303 306 309 312 314 315 314 312 311 311 310 310 313 313 313 314 315 316 317 318 319 319 317 316 315 315 315 315 316 318 320 320 317 313 309 308 308 310 312 312 311 311 308 305 301 297 293 289 285 281 276 272
271 275 278 279 280 283 286 288 291 295 298 302 305 307 309 312 313 312 310 310 310 308 309 311 312 312 314 314 315 317 318 319 318 317 317 317 316 316 317 318 320 322 321 318 313 309 307 308 310 312 313 314 314 311 309 306 302 298 294 289 285 280 274
271 275 278 278 280 282 284 286 290 294 298 302 304 305 308 310 310 309 309 309 308 306 308 310 311 312 313 314 315 316 318 318 318 318 318 317 317 317 318 319 321 322 322 319 314 309 306 306 308 311 313 315 315 313 310 307 304 300 297 294 290 284 278
272 274 276 277 279 281 282 285 290 295 299 302 303 304 307 308 307 307 308 308 307 306 307 309 310 312 313 313 315 316 317 318 319 319 319 318 317 318 319 320 322 323 322 319 315 310 306 305 307 310 312 314 315 313 309 306 303 300 297 295 291 285 280
272 273 273 275 277 279 281 287 293 296 299 301 302 303 305 305 304 305 307 308 307 306 306 307 309 311 313 313 314 315 316 318 319 319 319 318 317 318 319 321 322 322 322 319 315 310 307 306 308 309 309 311 314 314 311 307 304 301 298 296 293 288 281
271 271 271 273 276 279 284 290 294 296 298 301 302 303 304 302 302 303 306 307 307 305 305 306 309 311 313 313 313 315 316 318 319 319 319 318 318 318 319 321 322 322 321 318 314 311 309 309 309 308 308 309 313 315 313 308 305 304 301 298 298 294 287
271 271 272 274 277 281 286 290 292 295 298 301 302 303 302 301 301 303 305 307 307 305 304 306 309 312 312 312 313 314 315 317 318 318 318 318 318 318 319 320 321 322 320 317 314 312 311 311 310 309 308 308 311 314 315 311 307 308 306 302 300 297 291
275 273 274 276 279 282 286 288 291 295 299 301 302 302 300 299 300 303 305 306 306 304 304 307 311 313 312 313 313 314 315 316 317 318 319 319 319 318 319 319 321 321 320 316 313 312 312 312 311 309 308 309 310 313 316 314 310 310 310 306 302 299 292
274 273 275 277 280 283 285 287 291 295 298 300 301 300 299 299 300 303 304 305 305 304 305 309 313 314 313 313 313 314 315 315 317 318 319 319 319 318 318 319 320 321 319 316 313 311 312 312 311 309 308 310 312 314 316 316 313 312 313 310 306 303 298
273 272 275 277 279 281 284 287 291 295 297 298 298 298 297 298 300 302 303 305 305 304 306 310 313 314 314 313 313 314 314 315 316 318 318 318 318 317 317 318 320 320 319 315 312 310 310 311 310 309 309 311 314 315 317 317 314 313 313 310 305 304 306
275 275 277 278 279 281 285 288 291 293 295 296 295 295 295 296 298 300 303 305 306 307 308 311 313 314 314 313 313 313 314 315 316 317 317 317 316 316 316 317 319 320 319 316 312 310 310 310 309 308 310 313 315 315 317 317 315 313 311 306 300 300 307
277 278 278 279 280 283 286 288 290 292 292 293 293 293 294 295 298 301 304 307 309 310 310 311 312 313 313 313 313 313 314 315 315 316 316 316 315 315 316 316 318 320 320 317 314 312 311 310 309 308 309 313 315 315 316 316 314 312 310 306 299 297 304
277 277 277 278 281 283 286 287 289 290 290 291 292 292 293 295 298 302 306 309 310 311 311 310 311 312 312 312 312 312 313 314 315 315 315 315 315 315 315 315 316 319 320 318 316 314 312 311 309 308 309 312 314 315 315 316 314 312 310 308 302 298 302
277 276 276 278 280 282 284 286 287 288 289 290 290 291 293 296 300 304 307 308 310 311 311 310 311 311 311 311 311 311 312 313 314 315 315 316 316 316 315 314 314 316 319 319 317 315 314 312 310 308 309 310 313 315 314 315 314 312 312 312 309 304 302
275 275 276 277 279 280 282 284 286 288 289 289 289 291 295 298 302 305 306 307 309 310 310 310 310 310 310 310 310 311 312 314 315 316 316 316 316 315 314 312 312 314 317 319 319 316 315 313 310 308 308 309 311 314 314 314 314 313 315 318 316 311 306
273 274 275 276 277 279 281 284 286 287 288 289 290 293 296 299 302 304 305 306 308 310 310 309 309 309 309 309 310 312 313 315 316 316 316 316 316 314 312 311 311 313 316 318 318 316 314 313 310 308 307 309 310 312 314 314 314 314 316 320 320 318 314
271 272 273 274 276 278 281 283 284 286 288 289 290 293 296 299 301 302 304 305 307 308 308 308 307 308 309 310 312 313 315 315 316 316 315 315 314 313 311 311 311 312 315 316 317 315 313 312 310 307 307 310 310 311 313 315 315 315 316 320 323 324 324
271 272 273 274 276 277 279 281 283 287 287 287 288 291 295 299 301 302 304 305 306 306 307 307 308 309 310 312 314 314 315 315 315 314 314 313 312 312 311 310 310 312 313 315 315 313 311 310 309 308 308 310 310 310 312 315 317 317 318 323 327 328 329
273 274 274 274 275 276 278 281 283 284 283 283 286 291 296 300 302 303 304 304 304 306 307 308 309 310 312 313 314 314 314 314 314 313 312 312 311 311 310 309 310 311 312 314 313 311 310 310 309 307 307 308 309 309 311 314 317 318 319 323 328 330 331
275 275 275 275 276 277 279 281 280 279 279 282 288 294 298 301 303 303 304 304 305 307 308 309 310 311 312 313 313 313 314 313 313 312 312 311 311 310 309 308 309 310 312 313 311 308 309 310 308 306 305 305 307 307 308 311 314 317 319 323 328 331 332
275 275 275 275 276 278 279 278 278 278 280 286 292 296 299 301 302 303 305 306 307 307 308 309 310 310 311 312 312 313 313 312 312 312 312 311 310 309 308 308 309 309 311 311 309 307 308 308 306 303 302 302 304 304 304 306 310 314 318 321 326 331 333
274 274 274 275 277 278 278 277 278 281 285 291 295 297 298 300 301 303 304 305 306 306 306 307 308 309 311 312 312 312 312 312 313 312 312 311 310 309 309 309 309 309 309 308 307 306 306 306 304 302 301 301 301 301 301 302 305 310 314 318 323 328 332
273 274 275 277 278 278 278 279 282 286 291 294 296 297 298 299 301 302 304 305 305 304 305 306 308 310 312 312 312 312 312 313 313 312 311 310 310 310 310 310 310 308 307 306 305 305 305 304 303 302 302 302 300 299 299 299 300 305 309 314 319 325 330
275 276 278 280 280 279 280 283 287 291 294 296 297 298 299 299 301 302 304 304 303 303 305 307 310 311 312 312 312 313 313 312 312 311 310 311 311 310 309 310 309 308 307 306 304 305 305 303 301 301 303 303 302 300 299 299 299 301 305 309 314 320 326
278 278 279 279 279 280 283 287 290 293 296 297 298 299 299 300 301 302 303 303 303 304 306 310 311 312 312 312 312 312 312 311 311 311 311 311 311 309 307 307 305 304 306 306 303 304 304 300 298 300 303 305 305 304 302 302 302 302 303 306 310 315 321
278 277 277 277 279 283 287 292 295 296 297 298 298 299 299 300 301 302 303 304 304 306 309 312 312 312 311 311 312 312 311 311 310 310 310 310 309 307 305 303 299 297 300 301 300 302 303 298 296 298 301 304 305 306 306 305 305 306 305 305 308 312 316
276 277 278 280 284 288 292 295 297 297 297 298 298 298 299 299 301 303 305 306 307 309 311 312 311 311 310 311 311 311 311 310 310 310 310 309 307 304 301 300 296 292 290 290 293 299 301 298 295 295 298 302 302 304 307 307 306 308 308 307 309 311 315
280 281 284 287 289 292 294 296 296 296 297 297 298 298 298 300 303 306 307 308 309 310 311 311 310 310 310 310 310 311 311 310 309 309 309 308 305 302 300 297 292 288 284 284 287 294 296 294 293 294 298 301 301 303 306 307 306 307 308 310 312 313 316
285 286 287 289 292 293 294 295 295 294 295 297 298 299 301 303 306 308 309 309 309 310 310 309 309 309 310 310 310 310 310 309 308 308 308 307 303 301 300 296 290 283 280 281 283 286 286 287 290 294 297 299 300 301 303 304 306 307 308 310 313 315 318
287 287 287 288 291 292 293 293 293 294 295 298 299 301 304 306 307 308 308 308 308 308 308 308 308 309 309 309 310 310 309 308 307 307 307 306 304 301 300 297 290 281 276 278 281 283 283 285 289 292 295 297 298 299 300 302 303 305 307 310 313 315 318
286 285 286 287 289 291 292 292 294 295 297 300 302 304 306 307 307 307 307 307 307 306 306 307 308 308 308 309 309 308 307 307 306 306 306 306 304 300 298 294 286 278 275 278 282 284 284 286 289 292 293 294 295 297 298 299 300 302 304 307 310 313 317
284 284 285 287 289 291 292 294 296 298 300 302 304 305 306 306 305 306 306 305 304 304 305 306 307 307 308 308 307 307 307 307 306 306 306 305 301 297 293 287 279 275 276 278 280 283 285 288 291 293 293 292 292 294 296 297 297 298 301 304 307 310 312
284 284 286 288 290 292 294 296 298 299 300 301 302 303 304 304 303 304 304 303 303 303 305 306 307 307 307 307 306 307 308 307 305 305 305 304 299 293 287 280 274 272 274 276 279 284 288 290 293 295 294 293 294 294 294 295 295 296 299 302 303 304 306
286 286 287 289 291 293 295 296 296 297 298 299 301 302 302 302 302 302 302 302 302 304 305 306 306 306 306 305 306 307 307 306 305 305 305 302 296 286 276 270 267 267 272 278 284 288 290 291 293 294 295 295 294 294 293 293 294 295 298 301 301 301 302
Height
5917 5916 5916 5915 5915 5915 5914 5913 5912 5911 5910 5909 5907 5906 5904 5902 5900 5898 5897 5895 5894 5892 5891 5889 5887 5885 5882 5880 5878 5876 5874 5872 5871 5868 5866 5864 5861 5858 5854 5851 5848 5846 5843 5840 5837 5833 5830 5827 5824 5822 5819 5816 5815 5813 5811 5808 5807 5806 5805 5804 5804 5805 5805
5915 5914 5913 5912 5912 5912 5911 5911 5910 5909 5908 5906 5904 5903 5901 5899 5897 5896 5894 5892 5891 5889 5888 5886 5884 5882 5880 5877 5875 5873 5871 5869 5867 5865 5862 5860 5857 5854 5851 5848 5844 5841 5838 5835 5831 5828 5825 5823 5820 5817 5814 5812 5809 5807 5805 5803 5801 5800 5799 5798 5798 5798 5798
5912 5911 5910 5909 5909 5908 5908 5907 5906 5905 5904 5903 5901 5899 5898 5896 5894 5893 5891 5889 5888 5887 5885 5883 5881 5879 5877 5874 5872 5870 5868 5866 5863 5861 5858 5855 5853 5850 5847 5844 5840 5837 5833 5830 5826 5823 5820 5818 5815 5812 5809 5807 5804 5802 5800 5798 5796 5794 5793 5792 5792 5792 5792
5909 5908 5907 5907 5906 5905 5905 5904 5903 5902 5901 5900 5899 5897 5895 5893 5891 5890 5888 5886 5885 5884 5882 5880 5878 5876 5874 5871 5869 5867 5865 5862 5859 5857 5854 5851 5848 5845 5842 5839 5836 5832 5829 5825 5821 5818 5815 5813 5810 5807 5804 5801 5799 5797 5794 5792 5791 5789 5788 5787 5786 5786 5786
5906 5905 5905 5904 5903 5902 5902 5901 5900 5899 5898 5897 5896 5894 5892 5890 5888 5887 5885 5883 5882 5880 5879 5877 5874 5872 5870 5868 5865 5863 5861 5858 5855 5853 5850 5847 5844 5841 5837 5834 5831 5827 5824 5820 5817 5814 5811 5809 5806 5803 5800 5797 5794 5791 5789 5787 5785 5783 5782 5781 5780 5780 5780
5903 5902 5902 5901 5900 5899 5899 5898 5897 5896 5895 5894 5893 5891 5889 5887 5886 5884 5882 5880 5879 5877 5875 5873 5871 5869 5867 5864 5862 5859 5857 5854 5851 5849 5845 5842 5839 5836 5833 5829 5826 5822 5819 5815 5812 5809 5807 5805 5802 5799 5795 5792 5789 5787 5784 5781 5779 5777 5775 5774 5773 5772 5772
5900 5899 5898 5897 5897 5896 5896 5895 5894 5893 5892 5891 5889 5887 5886 5884 5883 5881 5879 5877 5875 5874 5872 5870 5867 5865 5863 5860 5858 5855 5853 5850 5847 5844 5841 5838 5834 5831 5828 5824 5821 5818 5814 5811 5808 5805 5803 5800 5798 5795 5792 5788 5785 5782 5779 5777 5774 5772 5770 5768 5766 5765 5764
5896 5896 5895 5894 5893 5893 5892 5891 5890 5889 5888 5887 5886 5884 5882 5881 5879 5877 5876 5874 5872 5870 5868 5866 5863 5861 5859 5856 5854 5851 5848 5846 5843 5840 5836 5833 5830 5826 5823 5820 5816 5813 5810 5806 5803 5801 5799 5796 5793 5790 5788 5785 5781 5778 5775 5772 5770 5767 5765 5763 5760 5758 5757
5893 5892 5892 5891 5890 5890 5889 5888 5886 5885 5885 5884 5882 5880 5878 5877 5876 5874 5872 5870 5868 5866 5864 5862 5859 5857 5854 5852 5850 5847 5844 5841 5838 5835 5832 5829 5825 5822 5819 5816 5812 5809 5805 5802 5799 5796 5794 5792 5789 5786 5783 5780 5777 5774 5771 5768 5765 5762 5759 5757 5755 5752 5750
5890 5889 5888 5887 5887 5886 5885 5884 5883 5882 5881 5880 5878 5876 5874 5873 5872 5870 5868 5866 5864 5862 5860 5857 5855 5853 5850 5848 5845 5843 5840 5837 5834 5830 5827 5824 5821 5818 5815 5811 5808 5805 5802 5798 5795 5792 5790 5787 5784 5781 5778 5776 5773 5770 5766 5763 5760 5757 5754 5751 5748 5746 5744
5887 5886 5885 5884 5883 5882 5881 5880 5879 5878 5877 5876 5874 5872 5870 5869 5867 5865 5863 5861 5859 5857 5855 5853 5851 5848 5846 5843 5841 5838 5835 5832 5829 5826 5823 5820 5817 5813 5810 5807 5804 5801 5798 5794 5791 5788 5786 5783 5780 5776 5774 5771 5768 5765 5762 5759 5755 5752 5748 5745 5742 5740 5738
5883 5882 5881 5880 5879 5878 5877 5876 5875 5874 5873 5871 5870 5868 5866 5865 5863 5861 5859 5857 5855 5853 5851 5849 5846 5844 5841 5839 5836 5833 5830 5827 5824 5821 5818 5815 5812 5809 5806 5803 5800 5797 5794 5791 5788 5784 5782 5779 5775 5772 5769 5766 5764 5761 5757 5754 5750 5747 5743 5740 5738 5735 5733
5879 5878 5877 5876 5875 5874 5873 5873 5872 5870 5869 5867 5865 5864 5862 5860 5858 5856 5854 5852 5851 5849 5847 5844 5842 5839 5837 5834 5831 5828 5825 5822 5820 5817 5814 5811 5807 5804 5801 5798 5796 5793 5790 5787 5784 5781 5778 5775 5771 5768 5765 5762 5759 5756 5753 5750 5745 5742 5739 5736 5733 5731 5729
5875 5874 5873 5872 5871 5870 5870 5868 5867 5866 5865 5863 5861 5859 5858 5856 5854 5852 5850 5848 5846 5844 5842 5840 5837 5835 5832 5829 5826 5824 5821 5818 5815 5812 5809 5806 5803 5800 5797 5794 5791 5789 5786 5783 5780 5777 5774 5771 5767 5764 5760 5757 5754 5751 5748 5745 5741 5738 5735 5733 5730 5727 5725
5871 5870 5869 5868 5867 5866 5865 5864 5863 5862 5860 5859 5857 5855 5853 5851 5849 5847 5845 5843 5842 5840 5837 5835 5832 5830 5827 5825 5822 5819 5816 5813 5810 5808 5805 5802 5799 5796 5793 5790 5787 5785 5782 5779 5777 5774 5770 5767 5763 5760 5756 5753 5750 5747 5744 5741 5738 5734 5731 5729 5727 5724 5721
5867 5866 5865 5864 5862 5862 5861 5859 5858 5857 5856 5854 5853 5851 5849 5847 5845 5843 5841 5839 5837 5835 5832 5830 5827 5825 5823 5821 5818 5815 5812 5809 5806 5803 5800 5797 5795 5792 5789 5786 5783 5780 5778 5775 5773 5770 5766 5763 5759 5755 5752 5749 5746 5743 5740 5737 5734 5730 5727 5725 5723 5720 5718
5863 5862 5860 5859 5858 5857 5856 5855 5854 5853 5851 5850 5848 5846 5844 5842 5841 5839 5837 5835 5833 5830 5828 5825 5823 5820 5818 5816 5814 5811 5808 5805 5802 5799 5796 5793 5790 5787 5784 5782 5779 5776 5773 5771 5768 5765 5762 5758 5754 5750 5747 5745 5742 5739 5736 5733 5730 5726 5724 5721 5719 5716 5714
5859 5857 5856 5855 5853 5852 5851 5850 5850 5848 5847 5845 5843 5841 5840 5838 5836 5835 5832 5830 5828 5826 5823 5821 5818 5816 5814 5812 5809 5807 5804 5800 5797 5794 5791 5788 5785 5782 5780 5777 5774 5772 5769 5766 5763 5760 5757 5753 5749 5745 5743 5741 5739 5736 5732 5729 5726 5723 5720 5718 5715 5713 5710
5853 5852 5851 5850 5849 5848 5847 5846 5845 5843 5842 5840 5838 5836 5835 5834 5832 5830 5828 5826 5824 5821 5818 5816 5814 5812 5809 5807 5805 5802 5799 5795 5792 5789 5786 5783 5781 5778 5775 5772 5769 5767 5764 5761 5758 5755 5751 5748 5744 5741 5738 5737 5735 5732 5729 5725 5722 5719 5716 5714 5712 5710 5707
5848 5847 5846 5845 5845 5843 5842 5841 5840 5838 5837 5835 5833 5832 5831 5830 5828 5825 5823 5821 5819 5817 5814 5811 5809 5807 5805 5802 5800 5797 5793 5790 5787 5784 5781 5778 5776 5773 5770 5767 5764 5761 5759 5755 5752 5749 5746 5743 5739 5736 5734 5732 5731 5729 5726 5723 5719 5716 5714 5712 5710 5707 5704
5843 5842 5842 5841 5840 5839 5838 5836 5835 5834 5832 5830 5828 5828 5827 5825 5823 5821 5818 5816 5814 5812 5810 5807 5804 5802 5800 5797 5794 5791 5788 5785 5782 5779 5776 5774 5771 5768 5765 5762 5759 5756 5753 5750 5747 5744 5740 5737 5735 5732 5730 5729 5727 5725 5723 5720 5717 5713 5711 5709 5707 5704 5701
5838 5837 5837 5836 5835 5834 5833 5831 5830 5829 5828 5826 5824 5824 5823 5821 5819 5816 5813 5811 5809 5807 5805 5802 5799 5797 5794 5792 5789 5786 5783 5780 5777 5774 5771 5768 5766 5763 5760 5757 5754 5751 5749 5745 5742 5739 5735 5732 5730 5729 5727 5725 5724 5721 5719 5717 5714 5710 5708 5706 5704 5701 5698
5833 5833 5832 5831 5830 5829 5828 5827 5826 5826 5824 5822 5820 5820 5818 5816 5813 5811 5808 5806 5804 5802 5799 5796 5794 5791 5789 5786 5783 5780 5778 5775 5772 5769 5766 5763 5760 5757 5755 5751 5749 5746 5744 5741 5737 5734 5731 5728 5726 5725 5723 5722 5720 5718 5716 5713 5711 5708 5705 5703 5701 5699 5696
5828 5828 5827 5826 5825 5824 5824 5823 5822 5821 5819 5818 5817 5815 5813 5811 5808 5805 5803 5800 5798 5796 5794 5791 5789 5786 5784 5781 5778 5775 5772 5769 5766 5763 5760 5757 5754 5752 5749 5746 5744 5741 5739 5736 5732 5729 5727 5724 5722 5721 5720 5719 5717 5715 5713 5711 5708 5705 5703 5701 5699 5697 5694
5824 5823 5822 5822 5821 5820 5820 5819 5817 5816 5815 5814 5812 5810 5808 5805 5803 5800 5798 5795 5793 5791 5788 5786 5784 5781 5779 5776 5773 5770 5767 5764 5761 5758 5755 5751 5749 5746 5744 5741 5738 5736 5734 5731 5728 5725 5723 5721 5719 5718 5716 5715 5714 5712 5710 5708 5705 5703 5700 5698 5696 5694 5692
5819 5819 5818 5817 5817 5816 5815 5814 5812 5811 5810 5809 5807 5804 5802 5800 5798 5795 5793 5791 5788 5786 5783 5781 5778 5775 5773 5770 5767 5765 5762 5759 5756 5752 5749 5746 5744 5741 5739 5736 5734 5731 5729 5726 5724 5721 5719 5718 5716 5714 5713 5712 5711 5709 5708 5705 5703 5700 5698 5695 5694 5692 5689
5815 5814 5813 5813 5812 5811 5810 5808 5807 5806 5805 5803 5801 5799 5796 5794 5792 5790 5788 5786 5783 5780 5778 5776 5773 5770 5767 5764 5761 5759 5756 5753 5750 5747 5744 5741 5738 5736 5733 5731 5729 5726 5724 5722 5719 5717 5716 5714 5713 5711 5710 5709 5707 5706 5705 5703 5700 5698 5695 5693 5691 5690 5687
5810 5810 5809 5808 5807 5805 5804 5803 5802 5800 5799 5797 5795 5793 5790 5788 5786 5784 5782 5780 5777 5774 5772 5770 5767 5764 5761 5758 5755 5753 5750 5747 5745 5742 5738 5735 5733 5731 5728 5727 5725 5722 5720 5718 5716 5714 5712 5711 5709 5708 5707 5706 5705 5703 5702 5700 5698 5696 5693 5691 5689 5687 5685
5806 5805 5804 5803 5801 5800 5799 5798 5797 5795 5794 5792 5789 5787 5784 5782 5780 5778 5776 5774 5771 5768 5766 5764 5761 5758 5755 5752 5750 5747 5744 5741 5738 5736 5733 5730 5728 5725 5724 5722 5720 5718 5716 5714 5712 5711 5709 5708 5706 5705 5704 5703 5702 5701 5699 5698 5696 5694 5692 5689 5687 5685 5684
5801 5800 5799 5797 5796 5795 5794 5793 5791 5790 5788 5786 5784 5781 5779 5777 5775 5773 5771 5768 5765 5763 5761 5758 5755 5752 5750 5747 5744 5741 5738 5735 5732 5730 5728 5725 5723 5720 5719 5717 5716 5714 5712 5711 5709 5708 5706 5705 5703 5702 5702 5701 5700 5698 5697 5695 5694 5692 5690 5688 5686 5684 5682
5796 5795 5794 5793 5792 5791 5790 5788 5786 5784 5782 5780 5778 5776 5774 5772 5769 5767 5765 5762 5759 5757 5755 5752 5750 5747 5744 5742 5739 5736 5733 5730 5727 5724 5722 5720 5718 5716 5714 5713 5711 5710 5709 5708 5706 5705 5704 5702 5701 5700 5699 5698 5697 5696 5695 5693 5692 5690 5688 5686 5684 5682 5681
5792 5791 5789 5788 5787 5786 5785 5783 5781 5779 5777 5775 5773 5771 5769 5766 5764 5762 5759 5756 5754 5752 5749 5747 5744 5741 5739 5736 5733 5731 5728 5724 5721 5719 5717 5715 5713 5711 5709 5708 5707 5705 5704 5704 5702 5702 5701 5700 5698 5697 5697 5696 5695 5694 5693 5691 5690 5689 5687 5685 5683 5681 5679
5787 5786 5784 5783 5782 5781 5779 5777 5775 5773 5771 5769 5768 5765 5763 5760 5758 5756 5754 5751 5749 5747 5744 5742 5739 5736 5733 5731 5728 5725 5722 5719 5716 5713 5712 5710 5708 5706 5705 5703 5702 5701 5700 5699 5699 5698 5697 5696 5695 5694 5694 5694 5693 5691 5690 5689 5688 5687 5685 5684 5682 5680 5678
5782 5780 5779 5778 5777 5775 5774 5772 5770 5768 5766 5764 5762 5759 5757 5755 5753 5751 5749 5746 5744 5742 5739 5736 5734 5731 5728 5725 5722 5719 5717 5714 5711 5708 5706 5705 5704 5702 5700 5699 5698 5697 5696 5695 5695 5694 5693 5693 5692 5692 5692 5691 5690 5689 5688 5687 5686 5685 5684 5682 5681 5679 5677
5776 5775 5774 5772 5771 5770 5768 5767 5765 5762 5760 5758 5756 5754 5752 5749 5748 5746 5744 5741 5739 5736 5734 5731 5729 5726 5723 5720 5717 5714 5712 5709 5706 5703 5701 5700 5699 5698 5696 5695 5694 5693 5693 5692 5691 5691 5690 5690 5689 5689 5688 5688 5688 5687 5686 5685 5684 5683 5682 5681 5679 5678 5676
5771 5769 5768 5767 5766 5764 5763 5761 5759 5756 5754 5752 5750 5748 5746 5744 5742 5740 5738 5736 5733 5731 5729 5726 5724 5721 5718 5715 5712 5709 5707 5704 5701 5698 5697 5695 5694 5693 5692 5691 5690 5689 5689 5689 5688 5687 5687 5687 5687 5686 5685 5685 5685 5685 5684 5683 5682 5681 5680 5679 5678 5677 5675
5765 5764 5763 5761 5760 5758 5757 5755 5753 5751 5748 5747 5745 5743 5741 5739 5737 5735 5733 5730 5728 5726 5723 5721 5719 5716 5713 5710 5707 5704 5702 5699 5696 5694 5692 5690 5689 5688 5687 5686 5686 5685 5685 5685 5685 5684 5684 5684 5684 5684 5683 5683 5682 5682 5681 5681 5680 5679 5678 5677 5676 5675 5674
5760 5758 5756 5755 5754 5752 5751 5749 5748 5746 5744 5742 5740 5738 5735 5733 5731 5729 5727 5725 5722 5720 5718 5716 5714 5711 5708 5706 5703 5700 5698 5695 5692 5690 5687 5684 5683 5682 5681 5681 5682 5682 5682 5682 5682 5681 5681 5681 5681 5681 5681 5680 5680 5679 5679 5678 5678 5677 5676 5675 5674 5673 5672